TimeIST,TemperatureF,Dew PointF,Humidity,Sea Level PressureIn,VisibilityMPH,Wind Direction,Wind SpeedMPH,Gust SpeedMPH,PrecipitationIn,Events,Conditions,WindDirDegrees,DateUTC
2:00 AM,63,39,30,29.90,9,NNE,2.3,,,,Clear,30,2013-02-14 00:00:00
5:50 AM,64.4,39.2,40,29.89,6.2,Variable,2.3,-,N/A,,Partly Cloudy,0,2013-02-14 03:50:00
6:50 AM,60.8,41.0,48,29.89,6.2,Variable,2.3,-,N/A,,Scattered Clouds,0,2013-02-14 04:50:00
7:50 AM,68.0,44.6,43,29.92,6.2,NNE,8.1,-,N/A,,Partly Cloudy,20,2013-02-14 05:50:00
8:00 AM,69,39,22,29.91,,NE,3.5,,,,,40,2013-02-14 06:00:00
8:50 AM,71.6,39.2,31,29.92,5.6,North,8.1,-,N/A,,Mostly Cloudy,350,2013-02-14 06:50:00
9:50 AM,75.2,37.4,25,29.92,5.6,NNE,9.2,-,N/A,,Mostly Cloudy,20,2013-02-14 07:50:00
10:50 AM,77.0,37.4,24,29.92,5.6,Variable,3.5,-,N/A,,Mostly Cloudy,0,2013-02-14 08:50:00
11:50 AM,78.8,37.4,23,29.89,5.6,Variable,2.3,-,N/A,,Mostly Cloudy,0,2013-02-14 09:50:00
12:50 PM,78.8,44.6,30,29.89,5.6,South,4.6,-,N/A,,Mostly Cloudy,180,2013-02-14 10:50:00
1:50 PM,77.0,51.8,41,29.89,5.6,South,4.6,-,N/A,,Mostly Cloudy,170,2013-02-14 11:50:00
2:00 PM,77,50,28,29.86,,South,3.5,,,,,180,2013-02-14 12:00:00
2:50 PM,77.0,50.0,39,29.86,5.6,South,5.8,-,N/A,,Mostly Cloudy,180,2013-02-14 12:50:00
3:50 PM,78.8,35.6,21,29.89,5.6,SW,8.1,-,N/A,,Mostly Cloudy,220,2013-02-14 13:50:00
4:50 PM,77.0,48.2,36,29.89,6.2,South,6.9,-,N/A,,Mostly Cloudy,190,2013-02-14 14:50:00
5:50 PM,75.2,48.2,38,29.86,6.2,SSE,4.6,-,N/A,,Mostly Cloudy,160,2013-02-14 15:50:00
6:50 PM,75.2,37.4,25,29.92,6.2,WSW,6.9,-,N/A,,Mostly Cloudy,240,2013-02-14 16:50:00
7:50 PM,71.6,39.2,31,29.92,6.2,North,4.6,-,N/A,,Mostly Cloudy,10,2013-02-14 17:50:00
8:00 PM,69,38,21,29.91,,NNE,2.3,,,,,20,2013-02-14 18:00:00
8:50 PM,68.0,41.0,37,29.95,6.2,NE,4.6,-,N/A,,Mostly Cloudy,50,2013-02-14 18:50:00